Theta_e
333 327 320 333 330 326 324 324 307 314 313 306 305 306 304 311 312 311 312 315 312 319 321 326 325 322 321 323 324 328 328 325 323 306 304 326 344 345 345 344 346 347 347 349 349 350 351 354 354 354 354 354 354 353 353 354 354 354 354 354 354 354 354 353 352 351 351 351 351 349 347 345 344 344 343 344 343 343 346 344 344 347 349 348 347 347 348 348 348 348 348 349 348 348 347 348 349
321 319 319 328 328 319 309 326 307 303 304 298 303 304 304 311 311 309 310 311 314 317 322 324 326 330 330 330 332 331 325 331 333 331 336 342 344 343 345 346 346 346 347 349 349 349 350 352 354 353 354 354 354 353 353 354 353 354 353 353 354 353 353 353 352 351 351 351 352 349 347 346 345 344 344 343 344 344 346 344 343 344 345 347 347 347 348 347 348 349 349 348 348 348 348 348 349
323 319 316 320 320 313 311 319 300 298 296 291 295 301 306 308 309 310 313 315 319 320 323 323 327 327 328 329 322 324 317 336 336 337 336 342 337 338 344 346 347 347 348 348 348 349 349 351 354 354 353 353 353 353 353 353 353 354 354 354 354 353 353 353 352 351 352 352 351 350 348 346 346 344 344 343 343 345 343 345 344 344 345 346 347 347 347 347 348 348 349 348 348 347 347 348 348
324 320 317 315 308 314 300 303 300 297 294 292 294 298 307 308 309 313 316 318 320 320 319 319 320 330 325 321 324 333 329 330 337 336 334 337 337 341 343 346 348 348 347 348 348 349 349 353 354 353 353 353 353 353 354 353 354 354 353 353 353 353 353 352 352 352 352 352 351 351 349 348 345 344 344 344 343 343 348 347 344 344 345 346 347 347 347 348 348 349 348 347 347 346 347 347 348
318 320 318 313 304 304 302 298 295 294 292 293 293 299 302 309 309 312 314 320 320 318 317 318 320 326 328 327 331 326 327 335 338 340 338 340 343 343 344 346 346 345 345 346 348 348 349 353 353 353 353 353 353 353 353 354 354 354 354 353 353 353 353 352 352 352 352 352 351 351 349 348 347 345 344 343 342 344 348 349 349 348 348 348 347 347 347 347 347 348 347 346 345 345 346 347 347
314 315 321 315 307 305 301 297 294 294 296 298 296 298 304 307 311 312 314 319 318 318 317 319 321 321 326 328 331 327 334 326 335 338 339 338 343 345 344 344 343 343 345 346 347 347 349 353 353 353 353 353 353 353 353 353 353 353 353 353 353 353 353 353 353 352 352 352 351 350 349 349 349 349 347 344 343 344 346 349 348 347 347 346 346 346 346 346 346 347 346 345 345 345 346 346 347
310 307 310 306 305 306 296 293 293 294 298 300 299 300 304 307 308 310 315 315 317 318 322 324 328 327 323 328 333 337 337 338 337 339 342 342 344 344 343 342 342 342 344 345 346 348 350 353 352 353 353 353 353 353 353 353 353 353 353 353 353 353 353 352 352 352 352 352 351 348 347 347 348 348 348 347 345 345 345 346 346 346 346 347 347 346 346 347 347 347 345 344 345 345 346 346 347
317 310 307 298 298 299 296 293 295 296 297 302 303 303 305 309 307 307 314 313 316 319 323 327 328 326 324 334 324 335 337 338 341 344 343 343 343 343 342 342 341 341 343 345 346 348 353 352 352 353 353 353 353 353 353 353 353 353 353 353 353 353 353 352 352 352 352 351 350 349 348 347 347 347 347 347 347 346 345 346 345 346 347 347 347 346 346 347 347 345 345 345 345 346 346 347 347
309 306 309 299 297 299 293 294 297 299 301 303 304 307 315 309 309 308 313 316 324 325 325 327 327 322 325 328 327 332 336 342 343 345 343 342 342 342 342 342 341 341 343 344 346 348 349 352 352 352 353 353 353 353 353 353 353 353 353 353 353 352 352 352 352 351 351 351 350 350 349 348 346 347 347 346 346 346 346 346 347 347 347 347 347 346 346 347 346 345 345 346 346 346 347 347 347
305 306 299 298 295 294 291 293 294 298 300 304 304 305 307 308 308 312 320 320 323 327 328 331 328 324 328 324 326 330 333 341 342 341 342 343 343 343 342 342 342 341 342 344 346 347 348 353 352 352 353 353 353 353 353 353 352 353 353 352 352 352 351 351 351 351 351 351 350 349 348 347 346 345 345 345 345 345 345 346 347 347 347 347 347 346 346 346 346 346 346 347 347 347 346 347 347
301 304 302 299 296 291 292 292 295 299 300 303 305 308 308 308 308 308 320 324 328 327 329 330 326 326 328 327 327 336 339 340 339 337 342 343 343 342 342 342 342 342 342 344 345 346 348 349 353 352 353 353 352 353 353 353 353 353 353 352 352 352 351 351 351 350 350 350 348 348 347 346 345 344 344 344 344 343 345 347 347 347 346 346 346 346 346 346 346 346 347 347 347 346 346 346 348
299 301 303 293 293 292 290 293 298 299 301 303 303 307 308 307 308 307 322 323 326 327 327 331 325 330 324 324 324 332 335 335 338 342 343 344 343 343 342 342 342 343 344 344 345 345 346 347 348 352 353 353 353 353 353 353 353 353 352 352 352 351 351 351 350 349 349 348 348 347 346 345 344 344 342 343 342 342 345 347 347 347 346 346 345 346 346 346 346 346 347 346 346 345 346 347 347
301 301 297 295 292 294 293 296 298 301 301 302 303 308 308 307 306 307 308 324 326 325 325 331 333 330 321 324 329 333 332 335 342 343 343 343 343 343 342 342 342 343 344 344 344 344 345 345 347 350 352 353 353 353 353 353 352 352 352 352 351 351 350 350 349 348 348 348 347 346 345 345 344 343 342 342 342 341 342 344 345 345 344 345 345 345 346 345 346 346 346 346 346 346 347 346 347
302 301 299 295 295 294 293 292 296 298 299 302 305 307 308 308 308 308 307 306 321 323 330 334 332 331 325 327 326 328 331 337 342 343 344 344 343 342 341 341 341 341 343 343 343 344 344 346 348 349 350 350 350 352 352 352 352 351 351 350 350 350 349 348 347 347 347 347 346 346 345 344 343 343 342 341 341 341 341 342 344 343 343 343 344 345 344 345 345 346 345 345 345 346 346 346 346
301 302 302 296 295 295 295 294 294 298 298 303 306 306 307 310 310 309 308 309 326 334 336 338 333 327 320 324 322 327 331 335 341 344 343 343 342 340 340 339 340 340 341 342 343 343 344 345 348 349 349 348 349 348 349 350 351 351 350 350 349 349 348 347 346 345 345 345 346 345 344 343 342 341 342 342 341 341 341 342 341 341 343 343 344 344 344 345 345 344 345 344 344 345 345 345 346
302 302 300 297 296 295 294 297 297 297 299 303 306 306 306 309 311 309 310 327 331 337 334 326 334 325 329 327 329 331 334 335 340 341 341 340 340 339 339 338 338 338 339 341 341 342 344 345 348 349 348 348 347 346 347 348 350 350 349 349 348 347 346 345 345 345 345 345 345 344 344 342 341 339 342 341 341 341 341 342 342 342 342 343 344 344 344 345 344 344 344 343 343 344 345 345 346
304 303 296 293 293 296 296 296 297 296 302 303 306 306 304 306 311 311 313 328 330 331 328 326 328 333 330 331 333 334 334 337 339 339 338 337 336 335 336 335 335 336 338 339 339 341 343 345 347 348 348 348 347 347 346 347 348 350 349 348 347 347 346 346 344 344 343 343 342 343 342 338 334 335 337 336 342 340 341 341 342 343 343 343 344 344 344 344 344 344 344 344 345 346 346 346 346
303 296 294 294 296 295 298 298 299 302 302 304 305 307 306 304 308 310 312 314 327 327 328 333 336 335 335 335 335 334 335 335 336 335 334 333 334 332 331 332 333 332 334 336 338 340 342 345 346 347 347 347 347 347 347 347 347 348 344 344 344 344 345 344 341 337 343 334 342 340 334 338 332 330 332 342 337 340 340 342 343 343 343 343 343 344 343 344 343 343 344 345 345 347 347 341 341
297 294 294 294 298 300 301 301 303 301 301 304 305 307 306 306 308 309 306 320 328 326 330 332 330 331 332 333 332 332 334 333 333 333 332 332 332 330 330 331 331 331 332 334 336 339 342 344 346 346 346 347 347 347 347 347 346 344 343 341 343 345 344 343 337 340 335 336 337 337 338 335 332 331 334 340 339 343 340 342 343 343 344 343 343 343 343 343 344 344 345 346 346 347 343 337 336
298 296 294 296 301 301 302 302 301 303 304 304 305 306 305 307 307 311 307 306 328 324 325 327 328 326 328 330 331 332 333 332 332 332 332 332 332 331 330 330 330 330 331 333 335 339 342 343 344 346 346 346 346 346 346 345 343 342 341 341 340 339 337 340 336 337 338 337 338 336 336 337 336 333 343 344 344 340 339 342 344 344 343 343 343 343 344 344 345 345 346 346 346 343 337 335 336
297 296 294 296 299 299 301 303 304 304 304 303 305 306 305 307 307 308 308 306 312 327 329 328 327 327 328 329 330 331 331 331 331 332 332 332 332 332 332 332 331 331 332 334 336 337 341 342 344 345 345 345 346 346 345 344 342 341 340 340 338 336 335 336 336 336 337 337 338 338 337 339 336 333 336 337 337 336 332 333 335 333 334 332 344 333 332 336 336 334 334 338 334 336 336 335 333
298 297 299 299 299 299 301 305 307 305 306 305 305 303 304 308 308 307 306 303 301 318 331 332 331 330 329 329 330 332 331 330 330 331 331 332 332 331 333 332 333 333 334 333 334 336 340 342 344 345 345 345 345 345 344 344 342 340 339 339 337 335 335 335 335 335 335 336 337 339 340 339 336 334 335 335 335 334 333 332 333 332 330 331 337 334 332 332 333 334 334 334 334 333 334 335 336
295 297 298 299 300 300 303 304 305 305 304 304 304 306 307 306 306 307 306 305 308 312 332 334 333 332 332 332 331 330 330 330 330 330 332 332 332 332 333 333 332 332 334 333 335 336 339 341 344 345 344 344 344 345 344 343 340 340 340 339 337 335 334 334 334 335 335 335 337 340 340 338 337 336 334 334 334 333 332 332 333 333 332 332 337 333 332 335 335 337 335 336 335 336 337 336 337
298 296 299 299 301 301 303 305 306 305 304 303 306 307 305 305 303 308 307 309 310 311 335 335 335 334 334 331 331 331 330 330 330 331 333 333 333 333 334 333 334 334 334 333 334 336 338 339 344 345 344 344 344 345 342 341 340 340 339 342 339 337 336 334 333 335 336 336 338 341 343 339 338 336 336 337 337 336 335 336 337 336 335 335 337 337 336 336 337 338 336 337 337 336 336 336 337
296 296 299 299 300 302 303 305 306 306 305 306 306 304 304 305 304 307 307 310 309 323 335 335 334 334 333 331 331 331 330 331 331 332 334 335 335 335 335 335 335 335 333 333 334 334 335 340 343 344 344 344 344 344 342 341 341 340 340 339 337 340 335 333 334 336 336 338 340 343 343 339 337 337 336 336 338 336 335 336 335 334 333 334 335 336 336 334 334 337 338 337 335 335 334 335 337
298 298 299 300 300 301 302 303 305 305 306 307 304 304 305 306 307 305 306 308 324 333 334 334 333 332 331 331 332 331 331 331 332 332 333 335 335 334 334 334 335 334 334 334 333 334 335 341 343 344 344 344 344 344 341 341 341 340 340 339 337 339 335 333 334 335 337 340 341 341 341 339 338 337 336 335 336 335 335 336 336 335 335 334 334 334 335 335 335 335 337 336 335 333 333 335 336
299 299 299 299 300 301 302 301 303 305 305 306 304 304 304 307 304 300 310 311 331 333 333 333 332 330 331 331 332 332 331 331 332 333 333 334 334 334 333 334 334 334 335 333 333 333 337 341 343 344 344 345 344 343 341 340 341 340 340 339 337 336 335 335 335 336 337 340 341 340 339 340 337 336 336 335 334 334 334 333 332 334 333 332 334 334 335 336 335 334 334 333 333 332 333 333 331
299 298 297 298 300 300 301 302 302 304 303 305 305 303 305 306 304 302 305 309 328 330 332 331 330 330 331 332 332 333 332 333 333 333 331 331 333 333 333 333 333 334 334 333 333 334 338 341 342 344 344 345 343 343 342 340 340 340 340 339 337 337 336 334 335 337 340 340 340 339 338 338 338 336 336 335 335 334 333 332 332 333 332 334 334 334 335 336 336 336 336 336 333 333 331 332 332
298 298 294 294 297 298 300 299 301 303 301 305 305 302 301 303 302 305 307 308 319 329 330 330 330 331 331 332 332 332 332 333 334 333 332 333 336 335 333 334 334 333 334 334 333 334 338 341 342 343 344 344 343 342 341 341 341 340 339 338 338 338 336 335 335 336 338 340 340 339 339 338 338 336 335 336 338 334 333 331 331 331 331 331 334 335 336 335 335 332 330 332 331 331 331 329 328
299 298 293 293 293 293 299 301 301 300 302 304 304 292 296 301 304 306 308 308 310 326 328 328 329 330 331 332 332 332 333 334 334 333 333 333 336 335 334 334 335 334 333 333 332 333 339 341 343 343 342 342 342 343 341 340 340 339 339 337 337 337 335 335 336 336 340 340 340 339 339 339 338 336 335 335 334 333 332 331 331 331 330 332 334 336 333 332 332 331 331 329 335 331 329 328 321
292 295 295 288 287 288 297 300 301 298 302 302 303 293 295 300 303 307 308 309 308 311 326 327 327 329 331 331 332 332 333 334 335 334 334 335 336 336 335 334 334 334 334 332 331 333 338 339 342 341 342 341 343 342 341 339 339 339 338 335 336 335 335 334 336 338 340 340 341 339 340 340 339 337 336 336 334 333 332 332 334 333 332 334 332 332 332 331 330 329 329 328 328 330 329 326 319
294 291 288 289 288 290 295 299 300 297 301 302 300 293 296 299 302 306 308 308 308 306 312 323 327 330 330 331 331 332 333 335 335 336 335 336 337 336 335 334 334 333 332 332 332 333 335 337 340 340 341 340 342 341 340 339 339 338 337 339 335 335 334 335 336 338 339 340 341 340 340 341 339 338 337 336 334 333 332 332 333 332 332 332 330 331 332 330 328 329 328 327 327 327 324 321 319
291 289 287 288 289 290 291 296 299 301 300 301 299 293 295 296 302 305 308 308 308 306 305 320 328 331 331 331 331 331 332 333 334 336 336 337 337 336 334 334 334 333 333 332 332 332 332 336 340 339 339 339 340 340 339 338 338 337 337 337 335 335 334 335 336 338 339 339 339 340 341 343 339 338 337 336 334 333 332 333 332 333 333 332 330 329 330 329 329 331 327 328 327 324 321 318 316
285 289 288 290 289 290 289 294 298 299 299 296 299 296 296 296 300 302 306 307 306 305 307 319 327 331 331 331 331 331 331 332 332 335 335 336 337 336 335 336 334 333 332 332 333 332 331 336 338 338 339 339 340 339 338 338 337 337 337 336 337 335 334 335 336 339 338 338 339 340 341 341 339 338 337 336 335 334 334 334 334 333 333 331 329 329 328 328 328 329 326 325 326 324 319 316 315
284 285 286 288 290 291 290 291 295 298 298 296 296 296 296 298 298 300 304 307 306 305 306 320 326 330 331 330 331 331 331 331 332 336 336 336 336 335 334 334 332 332 333 332 333 332 332 336 337 338 339 338 339 338 338 338 337 336 336 335 335 334 335 334 338 338 338 339 339 340 340 339 339 336 337 337 335 336 334 333 334 332 333 331 327 328 328 327 326 325 326 326 326 323 318 316 315
288 289 288 289 287 288 289 293 297 297 296 294 295 294 296 298 299 300 300 304 305 306 308 321 325 329 330 330 331 331 331 331 334 336 337 336 336 335 333 334 332 332 332 332 332 331 332 336 337 337 338 339 339 338 338 337 335 334 333 333 333 334 334 336 338 338 338 338 340 340 338 338 337 336 335 335 335 334 333 333 333 332 330 328 325 325 324 324 325 325 323 325 322 322 320 317 316
290 290 289 288 288 289 292 294 297 296 295 295 295 296 296 297 299 300 301 302 302 305 306 316 323 326 327 329 330 331 331 332 334 336 336 335 335 334 334 334 332 332 332 332 331 330 333 335 336 335 337 339 338 337 336 335 333 332 333 333 332 332 334 336 337 337 337 338 339 338 337 336 335 334 335 334 333 336 332 330 329 329 328 327 325 324 324 324 324 323 323 324 321 318 316 316 315
289 288 288 287 289 287 291 293 296 298 293 292 296 295 296 297 298 300 302 301 301 301 304 312 319 323 326 328 329 331 332 334 334 334 334 334 334 333 334 333 332 330 330 332 331 330 334 335 336 336 337 338 338 337 336 336 334 334 333 332 331 331 334 335 334 336 336 338 338 337 336 335 334 333 334 332 333 332 330 328 326 326 326 326 326 325 324 330 323 324 321 318 320 317 315 317 317
289 287 286 286 287 290 293 293 295 297 295 292 293 293 295 297 298 298 300 301 301 303 304 307 314 319 324 327 329 331 331 331 332 334 334 334 333 333 333 333 332 332 331 331 331 331 334 335 336 337 337 337 337 338 337 335 333 334 333 332 333 331 333 336 336 336 337 337 336 336 336 334 333 333 332 333 332 331 329 326 326 325 325 328 323 323 323 322 321 321 319 319 318 318 318 319 317
286 286 284 283 288 286 283 290 292 295 295 292 294 293 294 296 298 299 299 300 302 303 304 306 313 317 322 325 329 331 331 331 330 331 332 333 333 333 333 332 332 332 331 330 330 331 334 335 336 337 336 337 337 338 337 336 336 334 334 334 334 334 333 336 336 335 335 334 334 336 335 333 333 332 332 332 331 328 326 325 325 324 324 323 321 321 320 321 319 320 321 320 321 317 315 317 320
286 287 286 285 286 288 288 288 292 293 294 296 293 292 293 294 293 294 298 300 301 302 303 304 308 316 323 326 330 332 331 331 331 331 332 332 332 332 332 333 333 332 331 330 330 331 334 335 336 337 337 337 337 338 337 336 336 334 334 333 333 333 333 333 332 331 332 333 333 332 333 332 332 332 332 330 329 326 325 324 323 323 322 321 321 320 320 321 319 320 322 319 319 318 315 311 312
284 287 288 288 288 287 289 290 289 286 287 292 292 285 286 292 293 295 297 297 298 301 300 300 303 309 316 318 325 331 332 333 332 331 331 332 332 332 332 332 332 332 332 331 331 331 333 335 336 337 337 337 337 337 337 336 335 333 331 330 330 330 329 330 329 329 328 330 330 329 330 331 330 330 328 327 326 325 323 323 322 321 321 321 322 319 318 316 316 316 316 317 315 317 317 310 309
282 284 290 289 289 288 288 288 287 280 280 289 293 285 283 289 290 293 296 296 297 299 299 300 302 304 308 313 321 330 331 331 332 332 332 331 332 332 332 332 332 332 333 333 332 331 333 335 336 337 337 337 338 337 337 337 334 333 332 332 332 331 329 329 329 330 330 328 328 327 328 327 328 327 326 325 324 324 322 322 321 320 320 321 323 317 315 315 315 315 316 315 315 316 314 311 310
282 289 290 290 289 288 287 287 286 284 289 290 290 288 284 282 287 294 295 295 295 297 298 299 301 303 305 309 318 329 331 332 331 331 331 332 332 332 331 332 333 333 334 333 332 331 332 333 336 336 337 337 338 338 337 337 335 333 332 331 331 331 330 329 329 329 328 328 326 326 326 325 326 326 324 324 324 324 322 321 321 319 319 319 320 315 314 314 315 315 314 313 314 313 312 313 309
285 290 291 289 289 289 289 287 286 286 284 281 286 289 283 283 287 292 296 292 294 295 297 299 300 301 304 308 317 328 331 332 332 331 331 331 331 332 333 333 334 334 334 333 332 332 333 334 335 336 336 337 337 337 337 336 335 333 332 331 330 330 330 329 329 328 327 327 325 324 324 324 324 323 323 323 322 322 324 320 320 318 317 316 317 314 313 313 312 311 310 310 311 310 309 308 308
290 292 291 291 291 290 289 287 286 285 281 279 284 287 281 282 287 291 292 294 294 295 297 299 300 300 303 309 317 327 331 331 332 332 332 332 333 333 334 334 334 334 334 334 333 333 334 334 334 335 335 336 337 337 337 336 335 334 331 331 330 329 329 329 328 327 326 325 324 322 322 323 322 321 321 322 321 321 318 317 317 317 316 316 316 312 312 312 311 310 309 309 309 309 307 308 307
292 291 290 289 289 287 288 287 286 284 278 280 285 287 285 279 285 290 290 291 296 297 298 299 299 299 304 310 316 325 329 331 331 331 332 333 334 334 334 333 333 334 334 334 333 333 334 334 334 334 335 336 336 336 336 335 334 333 332 331 330 329 328 328 326 325 325 323 322 322 322 323 321 320 319 319 318 316 314 316 314 314 315 318 314 311 311 311 310 310 310 309 308 307 306 306 306
289 287 286 285 284 286 283 284 286 279 277 284 287 287 287 279 281 288 295 297 297 298 297 298 298 299 301 307 315 323 329 330 331 331 331 332 332 331 332 332 332 332 333 333 333 333 333 334 334 334 334 335 335 335 335 335 334 333 332 331 330 330 329 328 326 325 324 323 322 321 321 319 319 318 317 316 315 314 315 314 315 313 313 310 310 310 310 310 310 310 309 308 307 306 306 306 304
286 285 284 280 276 279 275 279 277 277 277 284 288 288 284 284 287 289 292 296 298 297 299 299 300 300 300 304 313 321 327 329 330 330 330 331 330 330 331 331 332 332 332 333 333 333 334 334 334 333 333 334 335 334 334 334 334 333 332 331 331 330 329 328 327 325 324 323 322 321 320 318 317 316 315 314 313 313 313 311 310 310 309 310 309 309 309 309 309 308 308 307 306 305 304 304 303
283 282 280 278 274 273 272 275 278 280 285 289 287 289 283 286 289 294 294 295 298 299 298 299 301 301 301 303 310 319 324 328 329 330 330 330 331 331 331 332 332 332 332 333 333 333 334 334 334 334 333 334 334 334 334 333 333 333 332 332 331 331 329 328 327 326 324 323 323 322 320 318 317 316 314 313 313 314 312 312 310 309 309 309 309 308 308 308 308 307 307 306 305 304 304 303 303
283 286 285 281 280 277 271 276 273 276 280 285 290 284 279 282 284 294 295 298 298 300 301 300 301 302 303 304 308 315 322 326 329 329 330 330 331 331 332 332 332 333 333 333 333 333 334 334 334 333 333 334 334 333 333 332 333 333 333 333 332 331 329 328 327 326 324 323 323 322 320 318 317 316 315 314 315 312 311 309 309 308 308 309 309 309 309 308 308 308 307 306 305 304 303 304 302
285 287 288 283 281 284 277 278 279 279 278 280 283 282 285 287 292 296 296 296 297 300 300 302 300 302 303 303 305 309 319 325 328 328 329 330 331 332 332 332 333 333 333 333 333 334 334 334 334 334 334 334 334 333 333 333 333 334 333 332 331 330 329 328 327 326 325 324 323 323 320 318 318 317 316 315 314 311 309 309 309 308 308 308 308 307 307 307 306 306 305 304 304 306 303 302 301
282 286 282 285 290 287 280 281 285 281 279 278 284 286 288 290 292 295 295 294 295 296 298 299 299 301 302 302 304 307 315 323 327 328 329 330 331 332 332 332 333 333 333 333 333 334 334 334 334 334 334 334 334 334 334 334 333 333 333 332 331 329 328 326 325 325 324 323 323 322 320 319 318 318 317 315 312 310 310 308 307 307 307 307 307 307 306 306 305 305 304 303 303 302 303 301 300
286 282 285 291 292 290 284 277 281 279 277 279 285 282 282 285 279 292 294 293 294 294 296 298 299 300 300 303 304 306 311 320 326 328 329 330 331 331 332 333 333 333 333 333 333 334 334 335 334 334 333 333 334 334 334 334 334 333 333 332 330 329 327 326 326 325 324 323 322 321 320 319 318 319 318 315 311 310 309 311 306 306 306 306 306 305 305 305 304 303 304 303 302 302 302 302 302
287 286 294 285 278 280 283 282 276 276 276 278 281 284 285 285 284 290 292 293 293 294 294 296 297 298 300 302 305 306 310 317 323 326 328 329 330 331 332 332 333 333 334 334 334 334 334 334 335 334 334 334 334 334 334 334 334 334 333 331 329 328 327 326 326 325 324 323 322 321 320 319 319 319 317 313 311 309 308 307 307 306 306 305 305 305 305 304 304 303 303 302 302 301 301 300 300
291 293 292 292 287 284 280 281 285 284 278 278 279 283 277 287 287 289 292 293 293 294 293 294 296 297 299 302 304 306 309 318 323 325 327 329 330 331 331 332 332 332 333 334 334 334 333 333 333 334 334 335 335 334 333 333 334 334 333 331 329 328 327 326 326 325 324 323 322 321 320 319 319 318 314 312 310 309 308 306 306 306 305 305 304 304 304 303 303 303 303 301 301 300 300 300 300
282 286 285 287 286 289 289 290 284 281 279 277 276 277 281 286 291 293 294 295 295 294 296 295 296 296 298 301 303 305 311 319 323 325 327 328 329 330 331 332 332 333 333 333 333 333 333 333 332 334 333 334 334 334 334 334 334 334 333 330 329 328 327 327 326 325 324 323 322 322 320 320 318 315 312 311 310 308 307 307 306 306 305 304 304 304 303 303 303 302 301 301 300 301 300 300 302
284 285 283 285 283 281 278 278 288 285 282 279 278 278 284 290 297 297 294 294 295 295 294 296 297 298 298 300 302 306 315 320 323 325 327 328 329 330 330 331 332 332 332 332 333 333 332 331 332 334 334 334 334 334 334 334 334 334 332 331 329 329 328 327 326 325 323 323 322 321 320 318 316 313 312 311 309 308 308 307 306 305 305 304 304 304 303 303 302 301 301 302 301 300 300 299 300
Wind_Speed
5 6 1 3 3 4 4 1 0 1 1 4 2 1 2 1 4 5 7 6 8 1 7 12 12 7 9 2 6 7 3 4 3 4 4 1 2 9 14 16 15 15 13 10 9 10 11 14 16 17 17 16 16 16 17 16 15 14 14 14 15 15 14 13 13 12 11 12 12 13 13 13 12 13 12 14 13 9 9 12 10 13 15 14 14 13 13 12 11 11 10 10 10 10 10 9 9
4 4 2 2 3 2 1 2 2 1 0 3 6 1 3 2 4 8 11 6 7 7 11 13 15 14 12 2 6 9 3 4 3 3 4 5 9 8 11 16 18 17 13 11 10 9 9 11 16 16 18 17 16 16 17 16 15 14 14 14 14 14 14 14 13 11 12 11 11 11 12 12 12 11 11 10 9 10 6 9 11 13 12 13 13 13 12 11 10 10 10 10 9 9 9 9 10
3 2 2 2 3 2 1 0 1 0 1 3 4 3 3 5 8 9 15 12 14 14 14 14 18 14 5 3 3 7 6 4 9 7 6 8 13 5 9 11 12 15 15 11 11 9 8 10 16 16 18 17 16 17 17 16 15 15 14 14 13 14 14 14 13 12 11 11 11 11 11 12 11 12 10 9 7 7 10 8 11 12 12 12 12 12 11 10 10 9 9 9 9 9 10 10 9
3 4 7 5 1 1 1 1 2 2 2 4 7 1 1 5 7 13 11 11 14 13 10 5 7 8 18 5 9 2 3 5 3 10 7 7 2 11 10 12 12 11 9 8 9 9 8 12 15 16 17 16 17 17 16 16 15 14 14 13 13 13 13 13 13 12 11 11 10 11 11 12 11 11 10 8 6 6 6 9 10 11 12 12 11 11 10 9 9 9 9 9 9 9 9 9 10
5 5 6 4 5 0 1 2 1 2 2 1 4 4 3 6 7 7 4 14 14 11 9 8 8 7 11 13 8 4 4 7 8 6 6 5 11 11 12 12 11 11 10 9 8 9 8 16 14 14 15 16 16 16 16 16 15 14 14 13 13 12 13 13 12 12 11 11 11 11 12 11 11 10 9 8 7 7 6 8 8 10 11 11 10 9 9 9 8 8 8 8 8 8 8 8 9
1 5 4 1 1 2 2 1 3 3 5 1 5 3 6 4 8 5 9 7 5 7 14 11 11 17 6 5 1 2 8 7 7 4 7 9 13 15 15 12 11 10 9 8 7 7 8 16 14 14 14 16 16 16 16 16 16 15 13 13 13 13 12 12 12 12 12 11 11 11 11 10 10 10 9 7 7 7 8 8 11 11 12 11 9 9 8 7 7 7 7 7 8 7 7 7 8
3 2 0 1 2 2 3 2 6 4 5 5 5 5 6 5 3 6 13 8 3 9 4 5 13 11 8 1 1 1 2 9 6 8 9 15 14 14 15 12 11 11 10 8 7 7 10 14 14 14 14 15 16 16 16 16 15 15 14 13 13 13 12 12 12 12 12 12 11 11 10 10 9 9 10 8 8 8 7 9 10 9 9 9 8 7 7 6 6 6 7 7 7 6 6 7 8
2 0 1 3 1 2 1 4 6 3 4 2 6 6 9 9 2 3 13 12 8 5 5 7 6 9 1 2 4 3 4 3 11 13 16 16 15 15 14 13 12 11 10 8 6 7 14 14 13 13 14 15 15 16 16 16 15 14 14 13 13 12 12 12 11 12 12 12 12 11 10 10 9 9 9 9 9 9 8 8 8 8 8 8 7 6 5 6 6 6 6 6 6 6 6 7 7
2 1 0 3 1 0 0 6 6 2 5 4 8 5 6 12 2 3 13 10 8 7 9 10 8 12 1 7 3 1 6 15 15 18 17 18 17 16 11 12 13 11 10 8 7 7 9 13 13 13 14 14 15 16 15 16 15 15 14 13 13 12 12 11 11 11 11 11 12 11 11 10 9 8 9 9 9 9 9 8 8 7 7 6 6 5 5 5 5 4 5 5 6 6 7 7 8
2 1 1 1 4 2 2 7 4 1 2 7 7 9 9 9 11 5 16 12 14 8 3 0 3 11 8 11 5 3 7 16 18 16 16 16 16 14 13 12 13 15 11 9 7 7 7 14 13 12 13 15 15 15 15 15 15 14 14 13 12 11 11 12 11 11 11 12 12 11 11 10 10 8 8 9 9 9 9 8 7 7 6 6 6 5 4 4 3 4 4 5 5 6 6 7 8
2 2 2 0 1 4 6 6 7 2 4 7 10 8 8 7 5 2 4 11 10 13 11 16 12 15 10 3 1 1 13 16 18 16 14 13 15 14 12 11 12 15 13 11 8 7 7 8 16 12 12 12 13 13 13 13 13 13 12 12 11 11 11 11 12 12 12 12 11 11 10 10 9 9 8 8 9 9 9 8 8 7 6 6 5 4 3 2 3 3 3 4 5 6 7 7 9
2 1 1 2 4 4 5 5 10 6 5 8 10 11 4 3 5 4 10 16 4 13 13 6 7 12 9 8 3 6 11 11 11 15 16 15 12 12 13 9 10 10 13 12 10 7 6 8 8 13 12 12 12 12 12 13 13 13 13 12 12 11 11 12 12 11 11 9 9 9 10 9 10 10 9 9 8 9 10 10 9 9 8 6 5 3 1 1 2 2 3 4 5 6 7 8 9
1 3 5 3 2 2 3 6 10 11 7 11 7 10 3 3 3 3 2 5 17 12 8 5 19 6 4 3 4 5 9 9 15 16 16 13 12 11 11 11 11 11 11 11 10 8 8 6 7 6 10 15 12 12 12 13 13 13 13 13 12 11 11 11 11 11 10 9 9 9 10 10 10 10 9 9 9 8 9 9 9 8 8 7 4 2 1 1 2 3 3 4 5 6 8 8 9
2 3 5 3 2 2 3 4 4 12 11 8 6 6 7 1 2 4 2 3 12 7 1 14 10 9 10 6 4 7 6 11 15 15 13 14 12 11 12 11 12 11 11 11 10 9 7 7 6 6 9 8 8 12 14 14 13 13 13 12 11 11 11 12 11 11 10 10 10 10 10 10 10 10 10 10 10 9 8 7 8 7 7 4 3 2 0 1 2 3 4 4 6 8 8 8 8
4 1 1 4 2 3 3 4 6 11 13 6 7 3 11 4 3 5 5 5 7 6 11 3 9 10 7 9 4 9 9 13 15 15 15 14 14 12 13 11 10 10 10 9 9 9 8 7 6 6 6 6 6 6 6 11 16 14 13 13 12 11 10 11 12 11 11 11 11 10 10 11 10 10 10 10 10 10 9 8 7 6 6 4 3 2 2 3 3 4 4 5 7 8 8 8 8
2 0 1 3 11 9 4 6 5 6 13 5 9 4 10 17 1 3 1 9 6 2 6 4 6 3 14 12 16 14 13 14 15 14 15 15 12 11 11 10 9 9 8 9 8 7 8 7 6 6 6 7 6 5 6 7 13 16 15 14 13 13 13 12 12 11 11 11 11 11 11 8 9 7 11 8 11 11 9 4 6 5 5 6 4 3 3 3 4 4 5 6 7 7 9 9 8
0 1 2 4 10 14 7 6 7 10 9 3 8 4 6 14 2 2 3 10 14 11 4 1 2 2 22 8 17 17 15 15 16 16 14 11 10 8 7 7 7 7 6 7 7 7 7 8 9 7 8 8 7 6 6 7 10 15 12 14 14 13 12 12 12 12 11 10 9 9 9 4 4 4 5 4 9 5 8 8 8 7 6 6 5 4 4 3 4 4 5 5 6 7 7 9 9
2 4 6 11 8 10 7 9 7 2 6 8 8 8 10 12 13 3 3 5 6 3 5 3 7 8 1 7 18 19 20 21 18 17 13 11 8 9 8 7 8 8 8 7 6 7 7 7 10 9 7 9 7 6 5 5 6 9 6 6 6 8 9 10 7 5 7 4 9 6 4 3 3 3 3 6 2 4 6 9 8 8 7 6 5 5 4 4 3 4 4 5 6 5 8 5 4
5 3 6 14 9 7 7 5 9 5 6 9 6 11 9 12 10 4 2 12 9 8 3 6 9 7 9 13 14 17 18 18 18 17 18 15 11 12 9 8 7 8 8 7 7 8 7 7 7 8 9 8 8 7 5 5 5 5 6 5 5 6 6 6 4 5 4 4 3 3 4 3 4 3 4 4 3 6 4 8 8 8 7 7 6 5 4 4 4 4 5 5 5 6 4 3 4
7 7 11 12 5 4 9 5 5 7 5 8 9 10 4 5 3 2 7 4 10 13 6 6 14 10 14 13 16 18 18 17 17 18 17 16 13 13 11 10 9 9 10 9 9 8 8 8 8 8 10 9 8 6 6 5 5 5 5 5 5 5 4 5 4 4 4 4 4 4 4 4 4 4 7 11 9 4 4 7 7 8 7 7 6 4 4 4 5 5 6 6 5 4 3 3 2
3 8 11 6 4 4 6 5 7 6 4 5 9 8 9 9 5 5 2 3 4 2 13 13 11 17 17 17 16 15 15 14 13 14 15 13 11 10 11 12 12 11 10 9 7 9 10 9 8 8 8 8 8 7 8 6 5 5 5 5 5 5 4 5 5 3 4 4 4 4 4 3 4 4 4 3 5 4 3 3 3 3 1 1 3 1 2 2 2 3 3 3 3 3 3 2 2
3 12 12 4 4 7 6 12 13 9 10 8 11 11 9 6 8 6 6 7 6 11 11 16 19 22 18 16 15 13 15 15 14 14 15 15 15 12 9 7 6 8 8 8 10 9 10 10 10 8 9 9 8 7 7 7 8 6 6 5 5 5 5 5 5 4 4 4 4 4 4 4 4 5 4 3 4 4 4 4 4 3 3 3 1 3 3 2 2 3 2 2 2 1 2 2 1
9 7 6 9 4 4 4 6 8 9 8 11 13 10 8 8 7 11 6 5 4 6 14 13 20 22 20 16 15 13 14 15 15 15 14 14 12 12 12 10 11 10 9 9 10 9 10 10 10 9 9 9 9 7 7 6 7 6 6 6 6 6 5 5 6 5 5 5 5 5 5 4 4 5 4 5 5 4 4 4 4 4 4 3 2 2 3 3 2 2 2 1 1 0 0 2 1
9 13 7 10 9 12 6 10 10 8 9 10 11 5 4 4 10 10 16 11 10 9 16 17 17 14 15 14 13 18 18 18 17 16 17 18 17 16 14 13 11 9 9 9 9 9 10 11 11 10 10 10 8 8 8 7 6 7 7 6 7 7 6 6 6 6 5 5 5 5 5 5 6 5 5 5 4 4 4 4 4 4 3 2 2 1 1 1 1 0 1 0 1 0 0 2 1
12 14 11 6 10 12 10 8 10 11 11 10 9 11 10 5 4 3 14 16 8 4 14 17 20 22 20 20 19 17 17 16 16 15 10 11 12 12 11 10 11 10 11 10 10 10 10 10 11 11 10 11 9 9 9 7 7 7 6 6 7 7 6 6 6 5 5 5 4 6 6 6 5 6 6 5 5 4 3 3 4 3 2 2 2 2 2 1 1 2 2 1 2 1 1 4 2
14 16 9 7 9 9 8 10 11 12 10 10 12 17 15 13 9 13 6 11 5 13 16 19 18 20 21 21 21 19 17 18 15 14 14 12 13 14 12 12 11 12 13 12 10 9 9 11 13 13 11 11 9 9 8 8 8 8 7 7 7 7 7 7 5 5 5 5 5 6 6 6 6 6 5 5 5 5 4 4 4 3 3 2 3 3 2 2 1 2 3 2 2 0 1 2 1
5 12 11 9 7 9 9 10 12 14 12 12 15 16 18 13 7 7 6 5 9 16 15 16 17 17 15 14 14 16 19 18 20 14 11 10 13 15 14 12 13 13 12 12 11 9 9 12 12 13 12 11 9 9 8 8 8 8 8 7 6 7 7 6 5 5 5 6 6 6 5 5 6 5 5 5 4 4 4 4 4 4 3 2 1 2 1 2 2 2 1 1 1 2 3 3 1
9 4 4 9 11 10 8 14 14 11 12 16 17 18 18 19 8 11 9 5 12 14 20 17 19 19 18 17 14 14 17 17 14 15 18 15 13 14 15 14 14 13 13 12 11 9 11 13 13 12 12 11 10 10 9 9 8 8 7 6 7 8 6 6 6 5 6 6 6 6 6 5 5 5 5 4 4 4 4 4 4 4 3 1 2 2 2 4 3 2 1 1 2 2 1 0 0
7 5 8 5 6 14 13 10 13 14 12 15 16 15 17 17 17 15 14 10 10 12 17 23 20 19 18 15 13 10 12 14 15 14 18 16 15 15 18 15 16 14 10 13 12 11 13 13 13 13 12 11 11 10 9 9 8 7 7 7 7 7 6 6 6 7 6 6 6 6 6 5 5 6 5 5 5 4 4 4 3 2 3 2 3 3 3 4 3 2 2 2 2 3 3 5 5
5 5 3 5 7 9 13 13 12 13 11 12 11 13 14 19 24 17 9 12 6 12 15 16 15 14 14 14 14 12 8 11 14 17 16 14 14 15 17 15 16 14 11 9 11 13 11 9 10 10 11 12 12 10 8 8 8 7 7 7 6 7 6 6 7 6 6 6 6 6 6 5 5 4 5 4 4 4 4 4 2 2 1 2 2 2 4 4 3 2 2 2 3 4 3 5 6
3 4 3 5 6 8 9 12 16 18 10 13 11 13 13 14 18 19 9 9 10 11 15 17 14 12 13 14 13 13 13 14 18 17 15 15 14 13 16 15 15 14 11 11 13 14 13 12 10 9 11 12 12 10 9 8 8 7 7 6 6 7 7 7 6 6 6 6 6 5 5 5 5 5 4 5 4 4 4 4 3 3 3 3 3 2 3 3 3 4 3 3 1 4 5 4 5
2 5 11 5 10 9 9 11 15 18 13 12 10 13 16 13 15 15 12 7 9 12 12 13 10 11 13 13 14 14 15 15 11 10 12 13 11 12 14 16 15 15 16 14 12 12 13 13 12 12 12 13 12 11 9 8 8 7 7 6 6 5 7 6 6 6 6 6 6 6 5 5 5 5 5 5 5 4 4 4 4 3 3 2 2 2 2 4 3 4 2 3 5 5 6 4 5
2 8 7 14 11 11 6 11 11 19 12 14 16 10 9 9 11 15 16 10 10 12 9 16 12 14 15 14 13 14 13 9 8 12 14 15 13 13 14 14 16 17 15 15 14 13 12 13 14 14 14 14 12 12 10 8 8 7 6 6 6 5 7 6 6 6 6 6 6 6 5 5 5 5 5 4 4 4 4 4 4 4 3 2 2 1 1 2 3 4 2 1 6 5 6 6 5
6 3 9 11 17 14 13 5 13 10 15 13 14 14 13 3 9 9 11 13 11 9 9 17 17 15 15 14 15 15 15 15 16 14 15 14 14 15 13 14 15 14 14 15 15 16 14 13 13 13 12 12 11 11 10 9 8 7 6 6 5 6 5 5 6 7 6 6 5 6 5 5 5 5 5 4 5 4 3 4 3 3 3 2 2 2 2 1 1 5 4 1 6 7 6 7 6
9 7 7 11 11 17 15 14 9 12 10 14 12 15 16 12 5 9 11 10 12 14 11 17 17 17 16 15 15 16 16 16 18 18 19 17 14 14 14 13 13 13 12 15 14 12 11 10 11 12 12 11 11 10 10 9 7 6 6 6 6 6 5 4 7 6 6 6 6 6 5 5 5 5 5 5 6 4 4 3 4 3 2 2 2 3 4 3 3 3 5 5 5 6 7 6 7
8 4 4 7 10 11 12 9 7 11 14 12 13 13 17 16 13 10 7 5 12 16 10 14 15 15 17 16 15 15 16 18 17 16 16 15 14 16 14 13 12 12 11 13 14 12 11 10 10 11 11 11 9 9 9 8 7 7 7 5 5 5 5 5 6 7 6 6 6 6 5 5 5 5 5 5 5 5 5 4 3 2 3 4 4 5 4 4 4 5 4 6 8 6 5 6 6
8 8 6 6 7 10 6 10 8 7 10 16 13 18 18 15 17 15 14 11 6 8 6 11 13 14 14 15 17 17 17 19 14 14 13 13 13 15 14 13 12 11 11 13 13 12 13 13 12 13 11 11 10 10 9 9 8 7 6 8 7 6 6 6 6 6 6 6 6 6 6 5 5 5 4 5 5 5 4 3 2 3 3 3 4 3 4 4 3 4 3 4 7 7 3 3 3
8 9 8 8 6 7 5 8 11 11 7 9 16 17 23 18 11 15 15 14 17 14 11 14 16 16 15 17 17 18 20 14 11 7 9 7 8 9 11 12 13 14 12 14 16 14 12 12 14 13 11 11 11 11 9 9 7 7 7 8 4 5 6 7 6 6 6 6 6 6 5 5 6 5 4 4 5 5 4 3 3 4 3 3 3 2 3 3 3 3 3 4 2 7 4 4 6
9 9 8 8 9 6 12 12 8 13 12 10 7 16 20 21 16 11 14 16 13 16 12 17 18 17 14 16 17 15 10 9 10 13 14 14 14 13 12 12 13 16 16 17 15 13 12 12 12 13 12 11 10 11 10 9 5 6 7 5 6 3 2 4 6 5 6 7 6 6 6 6 6 5 4 4 5 4 4 4 4 4 4 4 4 2 2 3 3 3 4 6 5 2 3 3 4
6 7 9 10 6 5 5 7 6 8 12 9 13 15 12 12 16 15 12 14 14 12 12 15 18 20 18 19 17 17 15 12 13 14 14 13 14 14 12 12 14 12 13 12 13 15 12 12 12 13 13 12 11 10 10 9 8 6 5 6 4 4 5 5 5 5 5 5 6 5 5 6 6 6 5 4 3 4 4 4 4 3 3 3 4 3 3 2 2 2 3 4 7 6 3 3 2
7 9 9 9 11 10 7 7 10 9 9 10 7 11 15 10 6 8 12 13 14 18 13 10 15 17 22 21 21 22 21 18 18 16 16 16 15 14 17 16 13 13 15 16 15 15 12 15 14 14 13 12 11 11 11 9 8 7 5 4 4 6 5 5 6 5 6 6 6 5 6 5 6 6 5 4 4 5 4 4 4 4 4 3 3 4 4 4 3 3 4 4 5 7 5 2 0
7 9 10 10 11 13 9 10 10 5 7 8 10 8 14 10 13 14 10 9 12 13 12 10 11 17 15 14 15 13 17 22 24 22 21 20 20 18 14 13 15 15 16 16 16 16 14 13 14 13 11 11 11 12 12 11 10 10 9 9 9 7 8 9 10 10 7 7 7 4 5 6 6 5 5 5 5 5 4 4 4 4 4 4 5 4 4 3 3 3 3 6 5 4 7 4 2
7 7 8 12 11 12 13 14 9 6 7 7 7 13 11 4 10 11 13 11 14 13 13 14 14 13 15 17 16 15 16 11 12 18 20 20 18 16 16 16 18 18 16 14 12 13 13 13 14 14 12 11 11 12 12 11 10 10 11 11 9 9 9 5 5 6 7 5 5 6 6 5 6 7 5 5 4 4 4 3 3 3 3 3 3 5 4 4 3 3 3 4 5 5 5 5 6
8 5 9 9 11 13 14 15 13 7 5 14 12 3 9 8 6 9 11 14 14 14 14 14 15 16 16 17 18 17 17 18 16 15 18 21 21 20 19 21 20 20 17 14 13 12 15 15 15 14 12 12 11 12 13 12 11 10 10 10 8 9 9 8 7 6 5 6 6 6 6 5 6 6 7 5 5 5 4 4 4 3 4 3 3 5 5 3 5 3 3 4 4 5 7 7 5
6 7 9 10 10 12 13 12 12 9 7 10 12 6 6 7 7 8 14 10 13 14 15 18 18 15 15 15 18 19 21 21 21 19 19 18 19 20 21 21 20 16 13 15 15 15 14 13 14 13 13 12 12 14 12 11 11 10 10 9 8 6 8 7 6 6 6 6 6 5 5 5 5 5 6 6 5 5 4 5 4 4 5 3 4 5 3 4 5 5 4 4 5 3 3 4 6
11 11 7 9 9 9 10 10 12 10 7 11 14 11 6 7 6 9 8 18 17 15 18 18 16 13 11 12 14 19 20 19 20 23 23 23 23 23 23 21 16 15 15 13 12 11 12 12 14 15 14 12 12 14 13 12 11 11 10 10 11 9 7 7 7 8 7 6 7 5 5 5 6 5 4 5 5 4 5 4 5 6 6 5 4 5 4 4 4 4 4 5 4 5 3 4 5
5 8 12 11 9 7 6 7 8 8 11 12 18 16 7 8 5 12 12 11 20 17 13 10 8 7 14 16 16 15 16 18 18 20 23 25 24 24 18 15 17 14 11 13 13 13 13 13 14 15 14 12 13 14 14 14 11 11 11 12 12 12 11 11 9 8 7 6 7 6 6 5 5 5 5 3 4 4 5 5 6 5 5 5 5 5 4 5 4 5 4 5 5 6 6 6 5
11 5 6 5 8 6 4 5 5 8 9 12 17 17 12 12 3 7 12 11 13 17 16 14 13 12 12 12 14 17 17 17 18 18 18 18 15 9 9 12 13 14 13 13 13 13 13 13 14 15 13 13 13 13 14 13 11 11 11 12 13 13 13 11 12 12 10 10 8 8 5 5 5 5 5 5 4 4 5 5 5 5 5 5 5 4 4 5 5 5 5 5 5 4 5 6 6
9 6 4 7 3 4 6 5 10 7 10 9 12 14 11 15 9 9 9 16 16 10 12 15 16 14 11 13 16 16 17 18 19 18 17 16 16 16 15 15 13 13 15 17 16 15 14 13 15 16 15 14 14 14 15 14 12 12 12 12 12 12 13 12 12 11 10 10 9 8 7 7 6 6 5 6 4 5 6 6 6 6 5 4 5 5 4 5 5 5 5 5 5 5 5 6 6
5 7 6 6 5 5 6 5 4 7 8 13 13 8 11 3 6 15 19 13 13 15 10 10 14 15 14 14 15 16 17 18 18 17 17 17 17 16 18 18 18 17 17 17 16 15 14 14 15 16 16 15 14 14 15 14 14 12 12 12 11 12 12 12 10 11 10 9 9 9 8 8 8 8 7 7 6 6 5 5 5 5 5 5 5 5 5 4 5 6 5 6 5 4 5 6 7
6 4 8 7 6 4 5 4 8 9 6 7 13 10 4 11 5 6 14 18 14 14 17 12 13 15 17 16 17 18 18 18 18 19 19 19 19 19 18 17 17 17 18 17 15 16 14 14 15 16 15 15 15 15 13 14 13 13 12 11 11 10 11 10 9 9 10 10 8 8 7 6 7 7 8 6 6 7 6 6 6 6 5 5 5 6 5 5 4 5 5 5 5 4 6 7 6
12 7 7 8 10 5 7 4 5 4 5 6 7 5 5 10 3 6 7 8 11 14 16 20 18 15 16 15 18 19 17 18 18 19 18 18 19 19 17 17 17 17 19 17 17 16 16 16 16 17 17 16 16 15 14 14 13 11 11 12 12 11 9 9 8 8 8 9 9 9 8 7 7 7 6 7 6 7 7 7 6 6 6 6 6 6 6 6 5 6 5 5 6 3 7 7 6
4 6 9 7 4 8 4 6 4 1 2 8 4 5 5 5 7 7 11 5 9 11 16 16 15 18 17 18 18 19 17 18 18 17 16 18 17 17 17 17 16 16 16 18 19 19 19 17 15 16 15 14 16 16 15 14 13 13 12 11 11 11 11 11 10 10 10 8 8 8 8 7 7 7 7 6 7 6 7 7 7 6 6 6 6 6 6 6 5 6 6 5 6 4 6 6 5
2 5 4 3 4 4 5 5 5 6 5 4 7 11 3 9 9 3 9 8 8 8 11 15 20 20 18 18 18 19 17 18 19 19 20 21 20 21 18 17 19 21 22 20 19 17 16 15 17 17 16 17 16 16 15 14 14 14 12 12 12 12 11 11 10 11 9 9 7 7 7 8 8 7 8 7 7 7 7 7 7 6 6 6 7 6 6 6 6 5 5 5 4 5 6 4 4
11 8 0 5 6 9 2 2 9 5 2 2 3 6 13 11 6 5 13 15 10 10 9 10 14 15 19 19 21 20 17 17 17 18 17 18 18 20 20 21 21 19 19 19 18 16 14 13 13 15 17 16 16 14 13 12 12 10 10 11 12 11 11 10 9 10 10 10 10 9 9 8 7 7 8 8 8 8 7 6 7 7 6 7 6 6 6 6 5 6 5 6 4 5 6 6 4
6 1 1 0 2 1 3 3 1 4 3 4 6 6 5 7 6 6 11 12 9 11 7 7 12 16 16 16 16 17 16 15 17 18 19 20 20 21 21 20 18 17 16 13 14 13 15 14 13 13 12 11 12 13 13 13 13 11 10 10 11 12 11 11 11 11 10 11 10 10 9 9 9 7 8 9 9 9 8 7 6 7 7 6 6 5 6 6 6 6 6 6 5 5 6 6 5
3 0 0 1 1 2 4 2 2 5 3 3 4 5 6 9 7 12 13 13 12 9 11 9 9 10 15 16 17 14 14 15 17 19 19 21 21 20 18 16 16 14 13 13 14 17 17 14 14 14 15 15 15 14 14 12 12 12 13 13 12 12 13 12 12 12 11 11 10 10 9 9 8 8 9 9 9 9 8 8 8 7 7 7 7 6 6 6 6 6 5 5 5 5 6 5 5
4 4 4 5 3 6 5 7 3 3 5 4 4 6 7 11 2 3 7 7 9 9 7 9 10 11 11 11 10 9 14 16 18 19 20 21 21 18 14 12 11 12 13 15 14 13 13 14 14 14 13 14 15 14 14 13 12 12 13 13 13 12 12 12 13 12 11 11 10 10 10 9 10 9 10 10 10 8 8 8 8 8 7 7 7 7 6 6 7 7 5 5 6 6 6 5 5
Wind_Direction
257 263 238 150 145 138 91 342 76 308 49 250 310 304 253 216 175 96 124 144 86 44 110 84 78 59 79 225 172 237 294 264 217 141 219 200 85 123 128 134 136 138 139 143 145 145 144 142 141 141 140 136 133 131 129 128 126 125 124 123 121 119 118 118 116 115 113 112 109 107 106 106 106 106 106 108 110 107 117 128 143 144 127 110 108 105 102 98 94 88 83 74 66 57 45 38 34
231 247 301 148 174 128 267 155 106 4 9 335 255 152 253 95 105 143 162 164 150 163 127 104 85 77 78 145 264 293 327 357 334 107 83 103 98 105 134 140 146 144 144 143 144 143 144 144 142 143 140 137 134 132 130 129 128 127 126 125 122 121 121 119 119 117 116 116 110 109 108 107 107 108 109 105 106 117 115 124 124 118 116 106 107 108 104 99 94 86 77 68 59 51 43 35 26
264 189 73 163 33 81 240 45 1 196 30 302 283 196 268 143 167 188 178 155 151 153 121 113 108 109 89 19 329 248 265 89 95 101 108 137 114 148 136 135 139 138 141 142 141 144 143 145 143 142 140 138 135 132 130 129 130 129 128 127 125 125 123 122 123 121 119 117 115 114 113 108 107 110 111 105 98 116 126 110 118 120 117 110 112 109 106 103 95 86 76 64 54 45 37 29 22
233 203 165 153 67 327 79 57 121 173 226 218 287 272 252 190 214 182 184 134 145 143 118 118 91 195 138 189 205 186 173 156 138 136 134 170 164 140 137 133 132 128 130 136 139 142 145 147 143 141 140 137 135 132 131 132 132 131 130 130 128 126 125 125 124 123 124 124 121 114 112 111 109 110 109 105 90 60 119 139 129 125 118 113 112 111 108 101 93 82 73 63 53 44 32 24 17
173 205 192 166 113 331 124 197 200 104 251 207 290 267 230 237 224 203 120 144 152 146 130 123 101 204 150 168 190 216 208 110 139 147 112 96 127 135 133 133 133 133 135 137 139 140 146 145 141 139 139 138 135 134 133 134 133 133 132 132 131 129 128 127 125 125 126 127 126 115 114 114 114 111 110 108 92 74 73 134 123 101 99 101 101 101 97 87 80 74 68 61 52 41 31 19 14
268 140 224 181 193 186 47 345 304 262 232 206 272 300 334 301 220 168 103 120 131 129 130 152 156 165 148 151 223 172 151 160 143 85 127 141 142 140 136 137 133 132 134 135 136 141 145 145 141 140 138 137 137 135 134 134 134 134 136 136 133 132 132 130 130 128 130 132 129 120 118 116 114 111 106 106 105 94 77 88 93 102 105 103 103 101 95 88 81 72 63 55 46 37 25 14 10
323 52 225 350 355 60 181 216 252 238 256 197 248 305 318 307 337 75 105 99 43 111 155 143 116 95 88 142 17 316 221 129 136 147 142 144 139 137 139 136 136 134 137 137 139 140 146 142 142 139 138 139 138 138 136 135 136 136 137 137 137 136 136 135 131 133 134 134 126 122 119 117 115 115 117 112 111 108 99 94 97 97 99 107 111 105 96 88 80 65 54 46 37 26 17 11 5
240 96 295 98 269 43 267 250 258 183 264 191 272 288 303 276 296 112 138 132 160 137 91 119 124 100 167 64 137 289 63 63 114 126 130 136 140 141 140 140 135 138 137 138 139 142 146 140 142 140 139 138 140 139 137 137 136 137 138 141 139 140 139 137 138 137 137 135 129 127 123 116 114 118 120 123 120 114 113 115 114 111 107 108 107 103 93 84 70 54 40 33 26 14 10 4 358
298 101 303 80 83 2 5 269 268 194 276 283 285 265 291 292 120 98 133 142 100 112 141 160 150 98 231 83 67 100 82 110 117 128 135 137 142 144 142 142 138 138 137 136 139 146 140 143 142 142 139 140 141 141 140 140 138 140 141 142 142 140 141 140 139 140 141 137 135 133 128 123 120 119 123 129 132 127 122 121 121 118 114 113 109 102 91 80 67 52 33 23 13 6 356 352 349
296 134 307 158 141 198 255 281 295 228 269 285 279 298 293 301 334 82 123 120 129 132 141 187 186 111 146 109 117 110 126 125 129 131 137 140 141 138 138 141 138 137 139 137 140 138 142 145 144 142 141 143 144 143 143 142 141 140 142 142 140 142 143 143 142 142 143 144 140 137 136 130 128 125 126 130 136 138 137 133 133 133 128 119 114 107 96 77 61 40 26 16 2 350 346 339 341
293 356 148 53 294 226 210 270 275 295 298 302 300 278 268 305 332 3 132 113 135 135 138 119 92 127 120 111 75 146 133 133 138 140 136 128 130 134 133 135 138 141 139 139 135 138 146 144 146 142 142 142 144 143 143 142 140 140 138 138 139 140 144 145 146 147 149 150 150 150 144 141 137 134 134 134 139 142 139 141 143 140 135 125 126 107 86 67 37 30 15 1 342 335 329 336 343
295 185 114 142 233 198 234 224 276 286 291 296 286 292 325 340 339 359 133 128 140 136 153 160 149 131 117 133 148 150 139 135 120 126 131 127 129 129 128 131 133 138 139 137 135 141 140 149 146 150 145 143 143 144 141 141 139 138 137 140 141 144 148 150 152 151 149 150 154 153 150 146 144 142 141 142 146 147 146 146 148 145 143 148 126 101 75 55 6 5 349 333 324 319 325 341 348
202 247 101 118 223 216 222 244 254 279 287 270 264 291 349 20 339 335 46 139 156 159 184 178 142 143 108 160 158 141 140 121 129 129 130 131 128 125 124 127 131 134 134 133 136 138 146 143 149 148 147 146 145 143 141 139 138 139 140 142 145 146 147 150 150 154 152 150 152 155 153 152 150 149 146 147 151 157 151 151 153 155 158 146 134 144 113 21 319 314 312 309 307 319 338 341 347
158 214 132 217 180 159 181 233 235 252 253 262 270 280 296 264 278 313 333 173 223 168 232 137 130 124 99 112 143 149 163 135 134 130 127 126 127 128 127 128 134 136 135 137 137 141 143 146 145 144 148 144 150 147 145 142 143 142 141 142 144 146 150 157 156 163 165 165 165 159 158 156 155 154 153 151 153 157 162 159 163 160 158 154 159 166 235 276 287 286 295 307 322 332 335 339 342
213 212 103 144 184 179 214 216 202 239 254 252 269 351 313 274 259 301 325 29 42 97 100 105 149 104 188 153 183 180 167 143 133 131 126 126 128 128 129 132 134 135 134 134 135 142 144 146 142 142 137 146 149 144 148 151 149 147 144 146 148 152 155 162 166 169 171 174 171 167 164 160 160 159 161 157 155 161 163 173 172 171 168 171 173 203 228 271 277 295 314 328 331 332 329 330 337
185 125 130 196 219 202 236 211 196 239 252 225 273 338 310 297 211 221 258 134 141 168 145 170 221 175 166 175 168 163 151 130 129 125 123 122 121 121 127 130 130 131 134 134 137 140 143 146 146 143 148 150 145 148 150 153 155 153 152 153 158 164 167 167 170 171 174 176 173 172 169 166 164 163 165 165 162 165 167 165 172 174 174 181 188 218 235 260 285 307 324 329 326 326 327 328 329
42 106 261 219 229 213 188 202 172 225 263 277 292 310 282 288 282 243 146 129 131 176 234 15 293 86 163 186 148 142 133 122 120 122 120 121 125 127 127 128 127 126 132 141 141 146 151 150 153 153 155 153 150 148 152 156 161 158 157 162 167 168 169 168 166 169 173 176 174 174 171 160 156 164 167 171 172 161 169 175 182 186 189 192 206 218 239 260 290 312 319 325 325 323 320 319 320
130 210 207 234 225 212 173 188 182 220 263 264 274 270 268 273 290 276 314 93 132 53 57 15 40 31 63 132 140 139 136 131 133 131 134 135 141 138 140 142 141 145 147 148 152 154 153 157 161 157 159 159 153 153 154 160 165 159 151 162 166 169 169 166 164 166 169 167 172 173 156 159 155 152 163 178 162 165 176 184 190 195 199 209 217 228 239 258 279 298 308 309 308 312 308 319 316
179 205 206 231 214 220 157 175 192 182 219 258 249 260 260 259 270 336 21 116 139 133 105 98 70 68 100 134 133 135 136 138 139 139 145 148 153 148 148 148 149 141 149 155 160 162 164 159 163 165 162 158 157 153 155 166 157 142 153 161 168 167 171 163 163 172 157 172 167 163 169 164 160 172 177 183 166 175 183 191 200 202 207 213 221 232 246 263 273 281 282 282 283 287 297 296 307
216 196 223 230 214 216 191 159 206 200 207 243 254 260 277 276 268 337 270 158 141 138 125 119 128 137 151 153 147 148 147 149 146 145 148 151 153 150 151 156 153 160 161 166 162 166 164 167 173 168 164 161 158 157 158 163 152 150 163 169 169 168 169 159 178 177 175 178 171 172 179 172 168 176 195 186 183 180 199 203 207 213 215 218 221 233 255 267 270 278 272 269 273 278 276 286 295
207 207 223 218 197 213 216 199 224 237 213 245 259 273 271 271 267 276 18 286 167 214 157 155 154 155 164 162 155 150 149 148 145 145 147 149 151 155 159 162 164 165 165 159 160 168 171 172 171 170 164 163 161 161 164 165 156 159 175 177 171 171 170 171 186 192 187 188 176 184 189 178 167 179 222 201 166 175 196 215 224 224 252 259 249 242 245 254 287 284 282 278 261 260 276 273 276
166 220 225 186 184 216 206 206 219 228 248 252 257 259 264 302 279 236 233 217 226 175 211 166 167 156 157 164 165 153 153 153 152 151 155 156 158 158 152 146 152 157 157 159 171 171 173 172 174 171 165 167 167 165 167 168 164 172 181 183 176 180 171 184 189 201 198 194 186 193 198 189 164 184 209 181 175 177 185 199 209 216 216 228 224 228 238 240 246 247 241 232 247 230 238 283 356
235 250 231 213 194 199 204 210 208 206 233 242 257 246 258 255 277 276 249 238 227 184 180 177 162 165 166 155 151 158 158 158 159 159 155 157 158 158 159 159 162 169 167 172 170 174 171 173 175 169 169 169 169 166 162 171 178 183 182 182 175 188 182 185 199 204 204 192 193 193 194 197 173 178 187 172 180 174 182 192 207 211 212 217 228 193 210 211 229 192 183 208 207 307 234 80 60
226 236 211 217 203 220 194 222 220 222 225 238 256 292 281 250 248 276 276 267 249 230 169 162 150 146 146 154 165 166 168 167 167 166 165 167 165 166 162 163 169 163 167 169 172 173 172 175 173 169 171 171 170 165 168 180 183 185 190 186 186 189 181 195 197 202 203 199 193 195 191 176 161 162 169 162 171 167 179 187 195 198 177 156 174 146 151 95 100 176 255 317 67 308 249 62 346
232 240 221 218 207 221 214 220 224 232 236 241 258 273 261 239 258 264 258 255 241 184 152 151 153 157 165 164 172 175 171 169 167 165 161 165 163 156 160 160 163 164 171 171 173 170 174 173 171 173 173 174 169 166 175 183 184 189 188 188 189 190 190 200 194 190 199 209 188 173 161 160 153 155 160 164 154 166 172 177 168 183 168 167 142 100 120 134 23 3 352 58 102 249 330 59 325
228 235 225 216 219 217 205 215 218 226 239 237 249 260 260 255 254 259 248 267 148 144 147 154 158 161 168 174 174 173 170 172 163 166 169 162 159 157 168 167 167 171 176 172 169 170 171 172 173 175 175 175 170 168 179 183 189 190 189 194 191 188 199 201 184 185 193 175 174 167 166 157 161 163 166 171 159 168 170 178 165 180 178 168 143 147 172 115 61 25 26 57 75 281 347 87 49
238 242 239 234 227 222 205 209 213 217 231 229 235 244 260 255 200 258 263 246 156 139 148 159 159 166 173 177 178 178 171 169 172 163 157 159 165 167 171 168 171 177 172 172 172 168 168 168 176 176 176 175 169 173 179 188 190 193 191 192 186 195 199 190 188 189 176 176 164 162 160 158 156 162 167 167 169 163 164 176 185 180 170 183 150 146 144 104 71 58 39 52 82 61 21 21 359
282 302 320 257 240 231 212 211 213 211 230 228 233 238 247 257 228 233 239 238 166 154 154 172 168 172 182 179 185 188 180 173 156 161 169 169 175 173 173 174 176 174 176 175 174 167 163 171 174 176 175 174 171 175 181 186 194 196 191 184 192 202 189 182 186 184 174 172 154 162 164 161 160 168 164 164 169 163 164 180 183 180 171 146 117 153 117 86 87 71 54 55 32 91 74 339 357
297 294 269 282 268 239 227 219 218 207 219 215 221 245 240 244 246 226 229 234 162 175 172 172 179 179 170 175 180 192 188 171 168 172 181 182 176 175 176 176 170 172 181 174 170 166 169 171 172 176 173 174 175 176 181 188 195 196 190 189 195 197 189 178 178 182 166 158 159 163 166 162 167 165 169 164 163 166 161 164 181 193 151 133 130 140 115 91 81 85 71 91 83 46 53 50 55
304 259 219 273 262 256 226 226 221 211 222 208 195 236 229 231 242 240 212 228 172 181 172 188 183 174 171 170 179 185 186 175 179 184 182 184 181 181 176 177 171 170 174 176 165 170 170 169 171 170 173 174 178 177 178 184 193 195 192 186 186 185 184 176 179 165 155 157 159 170 162 162 166 169 160 161 155 159 155 166 171 183 150 153 144 133 110 112 124 115 98 90 95 98 98 98 93
241 269 195 207 218 236 222 214 216 227 204 212 199 235 239 231 234 250 228 207 213 169 191 183 183 175 170 172 174 178 188 191 191 187 184 184 182 181 178 172 171 169 171 176 174 172 165 168 168 169 172 176 176 179 177 183 187 185 186 176 177 175 174 177 159 149 154 157 158 171 165 164 164 162 162 159 169 158 153 159 164 178 173 164 143 160 137 123 135 122 115 92 97 112 100 91 92
288 188 222 203 216 231 233 221 210 217 219 203 183 231 235 225 231 240 245 218 208 219 176 189 184 176 172 176 177 179 188 196 196 189 186 186 185 181 179 177 171 170 176 178 174 168 166 167 168 167 172 175 178 176 177 179 181 177 180 173 171 178 172 165 148 154 159 157 163 167 170 162 161 167 160 157 161 164 158 163 170 167 174 152 157 158 133 153 148 122 140 149 105 105 106 79 69
243 228 212 216 206 223 240 226 219 216 217 217 200 229 234 238 232 227 233 215 209 217 193 178 184 183 176 177 178 185 189 193 200 198 190 188 189 182 181 176 177 175 174 174 175 170 165 168 169 168 172 175 174 175 173 176 173 169 173 169 174 186 168 160 146 151 158 160 163 167 164 162 158 160 156 157 157 162 164 166 171 165 164 165 166 161 192 209 155 125 135 163 115 115 103 102 75
271 227 230 217 209 207 222 212 224 217 212 223 213 223 228 183 207 226 241 231 226 205 200 176 181 182 184 182 181 185 185 185 194 199 200 195 188 181 176 176 178 172 175 175 177 174 168 167 169 168 170 170 170 171 172 173 169 163 166 171 175 180 179 154 146 154 161 160 162 165 161 154 154 150 148 151 154 164 167 170 164 158 158 133 166 187 208 144 200 128 119 45 111 116 115 113 108
217 213 224 236 233 216 209 203 202 221 212 224 223 230 236 225 218 220 217 224 226 224 199 179 182 184 187 186 183 186 187 191 197 196 192 191 186 181 172 170 174 171 174 175 175 173 163 164 163 165 165 166 166 164 165 167 157 157 161 166 178 180 177 139 151 157 157 156 166 162 151 150 148 145 149 151 151 157 158 165 168 162 147 155 115 119 116 128 130 97 118 89 73 115 128 124 122
238 243 265 265 237 226 224 215 220 204 219 216 221 233 238 230 226 225 234 215 210 222 194 179 183 188 187 185 188 186 190 198 199 196 190 185 183 178 169 163 168 169 168 171 172 167 164 165 161 160 165 163 158 158 160 162 149 158 162 168 179 184 162 143 159 158 151 157 164 155 150 150 150 152 154 150 147 157 158 162 179 162 155 141 133 110 115 128 125 105 101 101 95 89 89 120 122
295 302 289 270 274 269 253 226 216 195 215 223 214 231 239 231 225 225 227 227 198 217 165 185 186 188 191 191 185 187 195 199 194 191 187 184 186 182 165 155 160 163 166 170 172 172 170 169 162 165 165 162 159 161 166 164 158 157 164 178 183 178 161 157 156 154 155 160 158 155 152 150 149 153 155 148 156 160 156 151 142 160 160 141 123 144 138 123 124 124 105 95 116 116 101 123 125
262 273 277 282 278 281 273 248 219 224 208 217 218 224 237 233 223 223 222 222 230 225 170 188 194 192 191 192 194 190 193 199 178 156 171 178 186 186 162 154 156 162 178 174 178 176 171 167 166 163 161 166 166 165 165 167 166 168 167 180 169 158 156 155 155 162 158 158 158 157 152 149 154 157 155 153 156 151 146 138 143 151 145 124 128 156 138 106 92 90 110 71 75 137 139 169 176
249 246 268 277 274 289 293 289 243 221 231 234 216 219 230 233 226 220 221 223 223 228 199 184 192 199 193 193 191 193 194 182 175 178 176 179 181 181 172 165 170 173 175 180 177 166 169 168 167 164 167 167 168 165 164 167 155 157 160 174 165 141 127 148 152 156 150 155 162 157 153 153 151 157 156 154 148 153 152 141 154 146 133 125 108 82 82 100 130 133 129 127 114 95 117 178 199
245 246 244 250 268 261 298 287 274 225 215 220 233 238 239 229 233 225 223 226 228 222 202 187 188 192 194 192 189 184 183 179 182 174 177 181 182 182 175 174 176 171 173 178 176 174 170 170 168 167 169 168 165 170 166 158 151 151 156 157 155 138 154 139 130 135 141 143 157 159 159 152 154 158 161 157 143 139 145 141 133 124 124 119 129 129 123 152 120 127 131 129 137 132 141 197 257
244 241 245 250 247 247 236 280 298 315 272 227 205 236 249 224 212 226 229 222 222 229 213 187 192 197 194 192 188 183 181 179 180 179 177 177 181 185 186 183 171 176 182 182 179 177 177 173 168 166 168 169 165 164 161 152 141 139 137 108 107 90 87 124 128 146 163 161 149 159 169 162 157 156 157 146 136 139 137 129 127 136 126 131 114 123 157 183 176 165 151 140 157 150 163 156 322
250 241 238 244 247 256 255 271 288 307 298 238 198 233 238 221 215 213 217 219 226 225 209 198 195 196 199 196 193 194 190 180 177 176 177 180 185 188 185 175 181 187 188 187 181 179 171 166 162 166 165 165 165 163 160 158 158 156 156 156 160 158 159 164 170 165 167 167 171 163 154 164 156 149 143 140 139 133 129 132 133 135 132 129 125 121 126 102 106 99 148 154 155 167 151 143 128
230 240 221 238 248 248 250 255 263 270 240 276 208 223 244 217 211 215 217 216 221 225 215 203 194 201 194 193 192 181 183 195 192 178 176 179 185 181 182 184 190 192 193 181 175 178 170 165 166 166 166 166 164 163 162 161 162 166 171 172 171 173 166 173 149 155 158 157 147 159 162 153 150 143 141 141 137 129 125 132 134 123 123 130 116 110 103 115 116 113 118 117 155 151 140 155 166
243 236 224 228 234 239 242 243 245 248 282 285 290 271 255 256 250 206 206 212 219 225 221 213 205 195 194 196 188 179 182 181 180 188 186 183 180 181 185 193 193 194 184 171 175 174 172 171 168 167 165 165 167 164 166 168 169 169 170 171 171 171 170 164 161 155 148 147 150 159 154 149 147 141 140 142 141 139 132 137 138 122 106 112 116 118 125 122 102 80 89 113 122 154 164 158 176
236 229 226 236 230 237 239 237 245 236 252 266 283 287 273 242 243 231 198 208 216 217 218 218 209 200 194 193 186 182 183 182 178 179 185 187 187 189 192 195 197 185 168 175 178 179 172 169 166 164 166 165 167 167 166 170 170 170 170 166 166 170 159 155 147 145 150 155 148 157 151 143 137 136 140 143 144 141 138 144 139 120 114 112 115 115 112 116 118 120 106 98 116 102 132 150 149
232 240 236 235 238 240 238 237 238 239 216 249 256 250 264 268 211 218 217 213 215 215 214 218 210 192 178 191 194 187 182 185 184 180 182 189 191 194 197 193 181 181 181 173 173 168 170 170 169 166 167 168 167 168 167 170 170 167 169 170 163 161 156 149 153 156 158 160 156 166 155 139 139 133 137 138 134 123 118 126 130 130 129 128 120 124 118 106 104 99 109 115 117 105 88 119 135
252 225 235 248 253 247 240 241 228 240 233 232 244 250 223 271 228 203 204 210 215 216 217 218 214 187 178 187 190 192 189 187 187 188 187 189 193 196 188 177 184 180 168 171 173 175 174 174 170 170 170 165 167 168 170 174 169 172 170 169 167 162 163 158 157 160 158 161 164 169 162 149 140 142 132 119 118 120 114 116 123 128 128 126 124 122 124 124 119 110 105 95 100 122 120 107 99
227 234 221 239 258 262 255 252 218 223 247 227 236 241 220 242 269 252 218 210 214 217 220 215 216 205 192 191 189 189 189 190 190 190 193 195 193 187 175 182 179 175 169 174 179 177 177 176 171 170 169 169 169 168 172 176 172 173 168 169 168 167 165 167 167 167 171 169 167 166 160 132 133 133 126 120 117 117 111 111 116 116 117 118 118 119 115 113 112 109 103 107 106 101 111 108 115
230 216 238 200 221 208 247 215 232 217 231 240 233 229 239 237 240 256 260 226 216 205 207 210 213 216 194 193 194 189 190 190 189 190 189 187 183 179 183 184 178 174 179 182 180 178 177 176 174 171 174 170 171 168 174 176 173 173 173 171 169 168 170 170 169 166 169 168 168 164 160 152 146 139 146 135 143 131 123 118 121 121 117 121 123 109 104 108 112 109 113 109 115 123 128 126 122
211 203 193 196 210 215 230 225 245 252 224 238 238 214 242 283 253 221 243 252 233 212 207 202 208 208 204 194 197 193 190 191 190 187 187 187 185 185 185 182 181 182 182 182 179 177 179 179 176 176 176 173 172 172 172 173 175 174 171 171 170 169 171 170 171 168 172 170 171 169 167 161 158 155 149 149 152 135 125 130 127 125 130 130 124 118 114 113 115 115 117 116 116 119 114 116 116
258 207 202 197 215 197 213 201 204 222 230 230 228 226 186 199 217 206 218 229 231 229 216 204 202 211 213 195 193 197 192 192 188 188 188 185 185 184 186 186 183 182 181 180 179 181 179 179 179 178 173 177 176 176 171 171 173 173 171 171 170 169 168 171 170 169 168 170 172 166 160 153 150 154 151 148 144 132 132 127 128 128 133 130 125 120 115 111 111 107 109 114 111 119 118 116 117
265 252 220 209 214 209 235 197 215 235 210 247 235 211 193 218 213 252 244 237 225 223 225 216 211 216 214 210 202 200 191 189 190 189 187 186 184 185 188 186 185 183 182 181 180 179 181 183 181 180 177 175 176 175 176 172 172 171 169 171 170 167 167 167 165 168 172 170 168 166 162 158 152 146 146 140 146 138 137 133 129 131 134 133 131 129 128 124 124 119 117 118 117 123 118 115 124
261 217 224 210 170 214 239 264 244 204 205 241 229 261 266 311 281 235 258 255 242 228 221 219 215 212 213 212 208 205 188 187 188 187 185 185 185 190 188 185 186 183 181 183 184 183 182 178 177 180 178 176 177 177 173 174 172 171 173 168 166 167 168 169 170 169 168 166 161 161 158 157 149 147 144 142 142 142 140 139 135 135 136 137 132 132 131 132 133 128 130 125 122 125 115 124 128
271 264 229 276 247 200 194 208 241 229 205 265 214 227 218 212 254 231 263 273 260 236 226 217 212 206 206 209 209 206 188 184 186 183 184 184 184 187 190 190 187 184 184 185 184 182 180 177 178 178 177 178 180 174 173 174 174 173 169 169 169 169 168 169 166 166 164 158 156 152 148 151 162 154 144 148 142 142 145 143 138 137 138 137 139 136 134 136 130 126 130 124 129 126 115 113 121
232 237 337 210 213 232 219 195 236 257 223 244 303 239 232 208 243 202 227 246 257 255 240 220 221 211 206 207 204 203 187 180 178 181 182 187 190 191 189 188 190 189 184 182 179 174 175 178 180 181 181 181 177 175 171 169 171 172 169 169 167 165 167 167 166 163 162 163 161 159 160 160 154 144 144 147 147 145 146 147 141 139 142 140 138 138 136 136 135 130 131 129 132 126 124 126 137
231 240 27 154 68 14 332 236 244 171 240 265 268 280 254 232 210 211 222 243 231 250 244 223 206 199 206 202 204 203 185 173 174 179 183 186 192 194 190 188 183 179 179 178 173 173 177 180 177 181 178 171 170 173 172 174 174 170 165 161 166 166 166 167 166 164 167 167 166 161 157 159 161 146 148 151 150 151 153 150 148 144 145 143 142 144 142 138 135 137 139 138 147 132 129 136 139
285 41 302 31 148 219 165 269 208 205 180 204 242 279 271 260 201 204 233 238 253 241 245 230 213 194 197 200 201 193 182 173 175 178 182 187 195 194 191 185 179 173 173 170 173 178 181 177 179 180 176 173 173 177 177 177 170 172 163 165 167 167 168 166 166 168 167 168 165 162 162 159 147 155 152 154 154 156 156 153 151 151 150 151 148 149 148 140 138 140 144 143 144 137 134 138 131
252 197 202 153 188 240 261 280 263 199 197 198 236 259 265 269 193 208 212 240 251 268 250 250 232 209 185 207 203 175 179 180 177 180 182 189 192 184 177 169 162 164 172 177 179 176 176 181 183 179 175 176 177 178 179 174 174 170 167 165 167 169 166 166 166 168 167 165 163 163 159 153 158 158 158 156 157 159 157 155 153 153 153 154 153 151 153 144 145 146 148 146 148 144 139 140 138